Time,TemperatureF,DewpointF,PressureIn,WindDirection,WindDirectionDegrees,WindSpeedMPH,WindSpeedGustMPH,Humidity,HourlyPrecipIn,Conditions,Clouds,dailyrainin,SolarRadiationWatts/m^2,SoftwareType,DateUTC
2013-11-19 00:04:00,38.3,20.0,30.10,SSW,206,7.0,12.0,48,0.00,,,0.00,0,weatherlink.com 1.10,2013-11-19 06:04:00,
2013-11-19 00:19:00,37.4,20.0,30.10,SSW,200,0.0,11.0,49,0.00,,,0.00,0,weatherlink.com 1.10,2013-11-19 06:19:00,
2013-11-19 00:34:00,36.6,20.0,30.10,South,190,0.0,8.0,51,0.00,,,0.00,0,weatherlink.com 1.10,2013-11-19 06:34:00,
2013-11-19 00:49:00,36.1,20.0,30.09,SSW,196,5.0,9.0,52,0.00,,,0.00,0,weatherlink.com 1.10,2013-11-19 06:49:00,
2013-11-19 01:04:00,36.0,20.0,30.09,SSW,198,0.0,11.0,52,0.00,,,0.00,0,weatherlink.com 1.10,2013-11-19 07:04:00,
2013-11-19 01:19:00,35.9,20.0,30.09,SSW,196,5.0,8.0,52,0.00,,,0.00,0,weatherlink.com 1.10,2013-11-19 07:19:00,
2013-11-19 01:34:00,35.2,20.0,30.08,South,184,5.0,8.0,54,0.00,,,0.00,0,weatherlink.com 1.10,2013-11-19 07:34:00,
2013-11-19 01:49:00,34.1,20.0,30.07,South,182,5.0,11.0,56,0.00,,,0.00,0,weatherlink.com 1.10,2013-11-19 07:49:00,
2013-11-19 02:04:00,34.1,20.0,30.07,South,173,5.0,8.0,56,0.00,,,0.00,0,weatherlink.com 1.10,2013-11-19 08:04:00,
2013-11-19 02:19:00,35.2,20.0,30.07,South,181,7.0,11.0,54,0.00,,,0.00,0,weatherlink.com 1.10,2013-11-19 08:19:00,
2013-11-19 02:34:00,34.8,20.0,30.06,South,173,8.0,11.0,55,0.00,,,0.00,0,weatherlink.com 1.10,2013-11-19 08:34:00,
2013-11-19 02:49:00,34.5,20.0,30.05,SSW,200,6.0,8.0,56,0.00,,,0.00,0,weatherlink.com 1.10,2013-11-19 08:49:00,
2013-11-19 03:04:00,34.3,20.0,30.05,South,173,6.0,11.0,56,0.00,,,0.00,0,weatherlink.com 1.10,2013-11-19 09:04:00,
2013-11-19 03:19:00,33.9,20.0,30.04,South,173,8.0,12.0,57,0.00,,,0.00,0,weatherlink.com 1.10,2013-11-19 09:19:00,
2013-11-19 03:34:00,33.7,20.0,30.03,South,188,6.0,11.0,57,0.00,,,0.00,0,weatherlink.com 1.10,2013-11-19 09:34:00,
2013-11-19 03:50:00,33.7,20.0,30.02,SSW,204,5.0,13.0,58,0.00,,,0.00,0,weatherlink.com 1.10,2013-11-19 09:50:00,
2013-11-19 04:05:00,33.3,20.0,30.02,SSW,194,7.0,11.0,58,0.00,,,0.00,0,weatherlink.com 1.10,2013-11-19 10:05:00,
2013-11-19 04:20:00,33.1,20.0,30.01,SSW,200,6.0,10.0,59,0.00,,,0.00,0,weatherlink.com 1.10,2013-11-19 10:20:00,
2013-11-19 04:35:00,32.8,20.0,30.01,South,182,0.0,8.0,59,0.00,,,0.00,0,weatherlink.com 1.10,2013-11-19 10:35:00,
2013-11-19 04:50:00,32.5,20.0,30.00,SSW,196,7.0,9.0,60,0.00,,,0.00,0,weatherlink.com 1.10,2013-11-19 10:50:00,
2013-11-19 05:05:00,31.7,20.0,30.00,SSW,200,0.0,7.0,61,0.00,,,0.00,0,weatherlink.com 1.10,2013-11-19 11:05:00,
2013-11-19 05:20:00,30.6,20.0,29.99,South,169,0.0,0.0,64,0.00,,,0.00,0,weatherlink.com 1.10,2013-11-19 11:20:00,
2013-11-19 05:35:00,31.0,20.0,29.99,SSE,168,0.0,6.0,64,0.00,,,0.00,0,weatherlink.com 1.10,2013-11-19 11:35:00,
2013-11-19 05:50:00,31.9,20.0,29.97,South,182,7.0,9.0,62,0.00,,,0.00,0,weatherlink.com 1.10,2013-11-19 11:50:00,
2013-11-19 06:05:00,31.5,20.0,29.97,South,182,8.0,11.0,63,0.00,,,0.00,0,weatherlink.com 1.10,2013-11-19 12:05:00,
2013-11-19 06:20:00,30.7,20.0,29.97,South,173,4.0,8.0,64,0.00,,,0.00,0,weatherlink.com 1.10,2013-11-19 12:20:00,
2013-11-19 06:35:00,31.4,20.0,29.96,South,178,7.0,11.0,63,0.00,,,0.00,0,weatherlink.com 1.10,2013-11-19 12:35:00,
2013-11-19 06:50:00,31.6,20.0,29.96,South,177,4.0,11.0,62,0.00,,,0.00,0,weatherlink.com 1.10,2013-11-19 12:50:00,
2013-11-19 07:05:00,31.5,20.0,29.96,SE,146,7.0,8.0,63,0.00,,,0.00,0,weatherlink.com 1.10,2013-11-19 13:05:00,
2013-11-19 07:20:00,30.3,20.0,29.95,South,169,8.0,10.0,65,0.00,,,0.00,0,weatherlink.com 1.10,2013-11-19 13:20:00,
2013-11-19 07:35:00,30.8,20.0,29.95,SSE,162,3.0,10.0,65,0.00,,,0.00,5,weatherlink.com 1.10,2013-11-19 13:35:00,
2013-11-19 07:50:00,30.6,20.0,29.95,South,171,2.0,8.0,65,0.00,,,0.00,14,weatherlink.com 1.10,2013-11-19 13:50:00,
2013-11-19 08:05:00,29.9,20.0,29.94,South,169,3.0,8.0,67,0.00,,,0.00,26,weatherlink.com 1.10,2013-11-19 14:05:00,
2013-11-19 08:20:00,30.2,21.0,29.93,South,177,2.0,8.0,68,0.00,,,0.00,42,weatherlink.com 1.10,2013-11-19 14:20:00,
2013-11-19 08:35:00,32.1,22.0,29.93,South,181,1.0,11.0,67,0.00,,,0.00,113,weatherlink.com 1.10,2013-11-19 14:35:00,
2013-11-19 08:50:00,33.8,23.0,29.92,South,179,8.0,15.0,65,0.00,,,0.00,163,weatherlink.com 1.10,2013-11-19 14:50:00,
2013-11-19 09:05:00,36.0,24.0,29.92,South,182,8.0,17.0,63,0.00,,,0.00,211,weatherlink.com 1.10,2013-11-19 15:05:00,
2013-11-19 09:20:00,37.6,25.0,29.91,SSW,198,8.0,14.0,60,0.00,,,0.00,250,weatherlink.com 1.10,2013-11-19 15:20:00,
2013-11-19 09:35:00,40.1,25.0,29.91,South,177,12.0,13.0,56,0.00,,,0.00,288,weatherlink.com 1.10,2013-11-19 15:35:00,
2013-11-19 09:51:00,41.6,25.0,29.90,South,175,9.0,22.0,52,0.00,,,0.00,323,weatherlink.com 1.10,2013-11-19 15:51:00,
2013-11-19 10:06:00,42.6,25.0,29.89,SSW,192,14.0,19.0,51,0.00,,,0.00,359,weatherlink.com 1.10,2013-11-19 16:06:00,
2013-11-19 10:21:00,43.6,26.0,29.88,South,171,13.0,22.0,50,0.00,,,0.00,397,weatherlink.com 1.10,2013-11-19 16:21:00,
2013-11-19 10:36:00,45.0,26.0,29.87,South,171,13.0,21.0,48,0.00,,,0.00,427,weatherlink.com 1.10,2013-11-19 16:36:00,
2013-11-19 10:51:00,46.2,28.0,29.86,SSE,168,14.0,22.0,49,0.00,,,0.00,441,weatherlink.com 1.10,2013-11-19 16:51:00,
2013-11-19 11:06:00,46.5,28.0,29.86,South,180,14.0,23.0,48,0.00,,,0.00,483,weatherlink.com 1.10,2013-11-19 17:06:00,
2013-11-19 11:21:00,47.1,28.0,29.85,SSW,208,17.0,24.0,47,0.00,,,0.00,434,weatherlink.com 1.10,2013-11-19 17:21:00,
2013-11-19 11:36:00,47.7,29.0,29.84,SSE,167,17.0,22.0,48,0.00,,,0.00,483,weatherlink.com 1.10,2013-11-19 17:36:00,
2013-11-19 11:51:00,48.0,28.0,29.83,SSW,193,12.0,23.0,47,0.00,,,0.00,396,weatherlink.com 1.10,2013-11-19 17:51:00,
2013-11-19 12:06:00,49.0,29.0,29.82,South,178,13.0,19.0,46,0.00,,,0.00,482,weatherlink.com 1.10,2013-11-19 18:06:00,
2013-11-19 12:21:00,49.5,29.0,29.81,SSW,196,11.0,21.0,45,0.00,,,0.00,427,weatherlink.com 1.10,2013-11-19 18:21:00,
2013-11-19 12:36:00,51.0,30.0,29.80,SSE,165,8.0,22.0,44,0.00,,,0.00,413,weatherlink.com 1.10,2013-11-19 18:36:00,
2013-11-19 12:51:00,51.9,29.0,29.79,South,178,16.0,21.0,42,0.00,,,0.00,380,weatherlink.com 1.10,2013-11-19 18:51:00,
2013-11-19 13:06:00,52.8,30.0,29.78,South,189,13.0,20.0,42,0.00,,,0.00,278,weatherlink.com 1.10,2013-11-19 19:06:00,
2013-11-19 13:21:00,53.9,30.0,29.77,South,189,10.0,22.0,41,0.00,,,0.00,334,weatherlink.com 1.10,2013-11-19 19:21:00,
2013-11-19 13:36:00,54.1,31.0,29.77,South,175,15.0,21.0,41,0.00,,,0.00,299,weatherlink.com 1.10,2013-11-19 19:36:00,
2013-11-19 13:51:00,54.1,31.0,29.77,SSW,206,10.0,16.0,41,0.00,,,0.00,258,weatherlink.com 1.10,2013-11-19 19:51:00,
2013-11-19 14:06:00,54.4,31.0,29.76,South,181,14.0,17.0,41,0.00,,,0.00,246,weatherlink.com 1.10,2013-11-19 20:06:00,
2013-11-19 14:22:00,55.2,32.0,29.75,South,180,2.0,19.0,42,0.00,,,0.00,241,weatherlink.com 1.10,2013-11-19 20:22:00,
2013-11-19 14:37:00,55.3,32.0,29.75,South,174,8.0,17.0,41,0.00,,,0.00,225,weatherlink.com 1.10,2013-11-19 20:37:00,
2013-11-19 14:52:00,55.8,32.0,29.75,South,171,14.0,17.0,41,0.00,,,0.00,397,weatherlink.com 1.10,2013-11-19 20:52:00,
2013-11-19 15:07:00,56.3,33.0,29.74,South,180,7.0,22.0,41,0.00,,,0.00,357,weatherlink.com 1.10,2013-11-19 21:07:00,
2013-11-19 15:22:00,55.2,32.0,29.74,South,190,12.0,24.0,42,0.00,,,0.00,148,weatherlink.com 1.10,2013-11-19 21:22:00,
2013-11-19 15:37:00,55.2,32.0,29.74,South,169,11.0,23.0,42,0.00,,,0.00,257,weatherlink.com 1.10,2013-11-19 21:37:00,
2013-11-19 15:52:00,55.6,33.0,29.74,SE,145,7.0,18.0,42,0.00,,,0.00,294,weatherlink.com 1.10,2013-11-19 21:52:00,
2013-11-19 16:07:00,55.3,32.0,29.75,SSE,166,10.0,17.0,42,0.00,,,0.00,199,weatherlink.com 1.10,2013-11-19 22:07:00,
2013-11-19 16:22:00,54.9,33.0,29.75,South,175,10.0,16.0,43,0.00,,,0.00,149,weatherlink.com 1.10,2013-11-19 22:22:00,
2013-11-19 16:37:00,54.2,33.0,29.75,South,180,7.0,13.0,44,0.00,,,0.00,83,weatherlink.com 1.10,2013-11-19 22:37:00,
2013-11-19 16:52:00,53.1,33.0,29.75,South,176,6.0,13.0,46,0.00,,,0.00,37,weatherlink.com 1.10,2013-11-19 22:52:00,
2013-11-19 17:07:00,52.1,32.0,29.74,South,188,0.0,6.0,47,0.00,,,0.00,11,weatherlink.com 1.10,2013-11-19 23:07:00,
2013-11-19 17:22:00,51.0,32.0,29.75,South,178,0.0,5.0,49,0.00,,,0.00,0,weatherlink.com 1.10,2013-11-19 23:22:00,
2013-11-19 17:37:00,50.9,32.0,29.75,SE,131,0.0,4.0,49,0.00,,,0.00,0,weatherlink.com 1.10,2013-11-19 23:37:00,
2013-11-19 17:52:00,50.7,32.0,29.74,South,173,0.0,4.0,49,0.00,,,0.00,0,weatherlink.com 1.10,2013-11-19 23:52:00,
2013-11-19 18:07:00,49.4,32.0,29.76,South,184,0.0,3.0,51,0.00,,,0.00,0,weatherlink.com 1.10,2013-11-20 00:07:00,
2013-11-19 18:22:00,48.8,32.0,29.76,South,180,0.0,0.0,52,0.00,,,0.00,0,weatherlink.com 1.10,2013-11-20 00:22:00,
2013-11-19 18:37:00,47.5,32.0,29.76,ESE,121,0.0,0.0,55,0.00,,,0.00,0,weatherlink.com 1.10,2013-11-20 00:37:00,
2013-11-19 18:52:00,48.2,32.0,29.76,SSE,150,2.0,4.0,54,0.00,,,0.00,0,weatherlink.com 1.10,2013-11-20 00:52:00,
2013-11-19 19:07:00,47.4,32.0,29.76,South,171,0.0,4.0,55,0.00,,,0.00,0,weatherlink.com 1.10,2013-11-20 01:07:00,
2013-11-19 19:22:00,44.9,32.0,29.77,South,171,0.0,0.0,60,0.00,,,0.00,0,weatherlink.com 1.10,2013-11-20 01:22:00,
2013-11-19 19:37:00,46.2,32.0,29.77,South,182,0.0,0.0,58,0.00,,,0.00,0,weatherlink.com 1.10,2013-11-20 01:37:00,
2013-11-19 19:52:00,46.1,32.0,29.76,South,186,0.0,0.0,58,0.00,,,0.00,0,weatherlink.com 1.10,2013-11-20 01:52:00,
2013-11-19 20:07:00,43.9,31.0,29.76,SSW,209,0.0,0.0,61,0.00,,,0.00,0,weatherlink.com 1.10,2013-11-20 02:07:00,
2013-11-19 20:22:00,46.0,32.0,29.76,SSW,202,0.0,0.0,58,0.00,,,0.00,0,weatherlink.com 1.10,2013-11-20 02:22:00,
2013-11-19 20:37:00,46.6,31.0,29.76,ESE,110,0.0,2.0,55,0.00,,,0.00,0,weatherlink.com 1.10,2013-11-20 02:37:00,
2013-11-19 20:52:00,43.9,31.0,29.75,East,90,1.0,5.0,60,0.00,,,0.00,0,weatherlink.com 1.10,2013-11-20 02:52:00,
2013-11-19 21:07:00,40.8,30.0,29.74,SE,143,4.0,10.0,66,0.00,,,0.00,0,weatherlink.com 1.10,2013-11-20 03:07:00,
2013-11-19 21:22:00,41.4,32.0,29.74,SE,143,4.0,7.0,68,0.00,,,0.00,0,weatherlink.com 1.10,2013-11-20 03:22:00,
2013-11-19 21:37:00,42.3,31.0,29.74,SE,134,0.0,5.0,65,0.00,,,0.00,0,weatherlink.com 1.10,2013-11-20 03:37:00,
2013-11-19 21:52:00,40.1,31.0,29.75,South,170,0.0,0.0,69,0.00,,,0.00,0,weatherlink.com 1.10,2013-11-20 03:52:00,
2013-11-19 22:07:00,41.0,31.0,29.76,West,265,0.0,4.0,68,0.00,,,0.00,0,weatherlink.com 1.10,2013-11-20 04:07:00,
2013-11-19 22:22:00,41.5,31.0,29.77,West,269,0.0,0.0,67,0.00,,,0.00,0,weatherlink.com 1.10,2013-11-20 04:22:00,
2013-11-19 22:37:00,42.9,31.0,29.76,SW,224,0.0,0.0,63,0.00,,,0.00,0,weatherlink.com 1.10,2013-11-20 04:37:00,
2013-11-19 22:52:00,44.4,32.0,29.75,South,173,0.0,5.0,61,0.00,,,0.00,0,weatherlink.com 1.10,2013-11-20 04:52:00,
2013-11-19 23:07:00,41.7,31.0,29.78,West,260,0.0,0.0,65,0.00,,,0.00,0,weatherlink.com 1.10,2013-11-20 05:07:00,
2013-11-19 23:22:00,41.6,31.0,29.77,West,265,0.0,0.0,65,0.00,,,0.00,0,weatherlink.com 1.10,2013-11-20 05:22:00,
2013-11-19 23:37:00,41.6,31.0,29.76,West,265,0.0,0.0,65,0.00,,,0.00,0,weatherlink.com 1.10,2013-11-20 05:37:00,
2013-11-19 23:52:00,41.6,31.0,29.76,West,265,0.0,0.0,65,0.00,,,0.00,0,weatherlink.com 1.10,2013-11-20 05:52:00,